www.pogodaiklimat.ru

Погода и климат >> Архив погоды >> Сенегал >> Подор


ПОГОДА в Подоре

  • Прогноз погоды в Подоре
  • Монитор погоды в Подоре

АРХИВ ПОГОДЫ в Подоре

Время (UTC), дата Ветер
(напр.,м/с)
 
Видим.   Явления Облачность Т
(С)
Тd
(С)
f
(%)
Тe
(С)
Тes
(С)
Комфортность P
(гПа)
Po
(гПа)
Тmin
(С)
Tmax
(С)
R
(мм)
R24
(мм)
S
(см)
06 15.04 З 1 10 км ясно +20.5 +7.1 42 +23 +23 комфорт 1010.9 1010.1 +20.0
12 15.04 штиль 0 10 км ясно +36.6 +5.4 15 +34 +62 опасность
солнечного
удара
1011.5 1010.7
18 15.04 штиль 0 10 км ясно +41.5 +1.1 8 +38 +40 очень
жарко
1007.7 1006.9 +43.0
00 16.04 З 1 10 км ясно +28.5 +9.5 30 +28 +28 жарко 1011.0 1010.2
06 16.04 З 1 10 км 3/0
[Ci sp]
+21.6 +11.6 53 +24 +24 комфорт 1010.1 1009.3 +21.0
12 16.04 С 1 10 км ясно +36.7 +7.0 16 +34 +58 опасность
солнечного
удара
1011.0 1010.2
18 16.04 З 1 10 км ясно +42.0 +0.3 8 +38 +41 очень
жарко
1007.7 1006.9 +43.5
00 17.04 З 1 10 км ясно +27.4 +9.8 33 +28 +28 жарко 1010.8 1010.0
06 17.04 СЗ 1 10 км 3/0
[Ci sp]
+23.2 +11.5 48 +26 +26 жарко 1009.8 1009.0 +22.9
12 17.04 С 2 10 км 3/0
[Ci sp]
+34.5 +8.2 20 +33 +52 опасность
солнечного
удара
1012.0 1011.2
18 17.04 С 1 10 км 6/0
[Ci sp]
+38.6 +6.8 14 +36 +38 очень
жарко
1008.4 1007.6 +40.0
00 18.04 З 1 10 км ясно +26.5 +14.0 46 +29 +29 жарко 1012.1 1011.3
06 18.04 З 1 10 км 4/0
[Ci sp]
+21.8 +15.5 67 +25 +25 комфорт 1010.9 1010.1 +21.1
12 18.04 СВ 2 10 км 1/0
[Ci sp]
+33.2 +11.2 26 +33 +53 опасность
солнечного
удара
1011.8 1011.0
18 18.04 СВ 1 10 км 5/0
[Ci sp]
+38.5 +8.2 16 +36 +39 очень
жарко
1008.6 1007.8 +40.5
00 19.04 З 1 10 км 4/0
[Ci sp]
+28.0 +11.6 36 +29 +29 жарко 1011.0 1010.2
06 19.04 СЗ 1 10 км 5/0
[Ci sp]
+24.0 +12.7 49 +26 +26 жарко 1009.8 1009.0 +23.5
12 19.04 СВ 1 10 км 1/0
[Ac cast]
+38.0 +7.1 15 +36 +58 опасность
солнечного
удара
1011.0 1010.2
18 19.04 С 1 10 км 3/0
[Ac cast]
+40.0 +6.5 13 +37 +39 очень
жарко
1008.2 1007.4 +42.2
00 20.04 З 1 10 км 3/0
[Ac cast]
+29.2 +7.6 26 +28 +28 жарко 1011.2 1010.4
06 20.04 З 1 10 км 4/0
[Ac cast]
+25.2 +8.7 35 +26 +26 жарко 1009.2 1008.4 +24.7
12 20.04 С 1 10 км ясно +35.5 +8.4 19 +34 +58 опасность
солнечного
удара
1010.7 1009.9
18 20.04 З 1 10 км ясно +39.6 +5.6 13 +37 +39 очень
жарко
1007.4 1006.6 +41.0
00 21.04 З 1 10 км ясно +27.0 +9.6 34 +27 +27 жарко 1010.9 1010.1
06 21.04 З 2 10 км ясно +21.5 +13.0 58 +24 +24 комфорт 1009.9 1009.1 +21.0
12 21.04 СЗ 1 10 км ясно +33.2 +11.2 26 +33 +57 опасность
солнечного
удара
1010.7 1009.9
18 21.04 З 1 10 км 6/0
[Ac cast]
+37.5 +6.1 15 +35 +36 очень
жарко
1007.5 1006.7 +40.0
00 22.04 З 1 10 км 3/0
[Ac cast]
+25.0 +10.8 41 +26 +26 жарко 1011.5 1010.7

 

Местоположение метеостанции Подор (Сенегал): широта 16.65 долгота -14.96 высота над уровнем моря 7 м.

В архиве по умолчанию представлена погода в Подоре за последнюю неделю. Архивные данные за месяц целиком и за предыдущие месяцы, начиная с января 2011 года, Вы можете получить, выбрав интересующий диапазон дат из раскрывающегося списка и нажав кнопку "Ввод!".


*Определитесь, кто Вы:
робот инопланетянин человек

Внимание! Время в таблицах - всемирное. Для получения местного времени необходимо прибавить поправку, которая равна 0 ч.

Смотрите также архив погоды в соседних городах и на ближайших метеорологических станциях:

Погода в Росо (Мавритания) (92 км)
Погода в Бутилимите (Мавритания) (102 км)
Погода в Лингере (Сенегал) (142 км)
Погода в Каэди (Мавритания) (164 км)
Погода в Сент-Луисе (Сенегал) (172 км)
Погода в Нуакшоте (Мавритания) (192 км)
Погода в Матаме (Сенегал) (214 км)
Погода в Диурбеле (Сенегал) (261 км)
Погода в Каолаке (Сенегал) (304 км)
Погода в Кауере (Гамбия) (329 км)

Пояснения к столбцам:

Ветер - указаны скорость ветра в м/с - средняя за 10 мин, порывы в срок и между сроками (в фигурных скобках) и направление, откуда дует ветер: С - северный, СВ - северо-восточный, В - восточный, ЮВ - юго-восточный, Ю - южный, ЮЗ - юго-западный, З - западный, СЗ - северо-западный.
Видимость - горизонтальная дальность видимости в метрах или километрах. При видимости от 1 до 10 км при отсутствии осадков обычно наблюдается дымка, при ухудшении видимости до 1 км и менее - туман. В сухую погоду видимость может ухудшаться дымом, пылью или мглою.
Явления - указаны атмосферные явления, наблюдавшиеся в срок или в последний час перед сроком; фигурными скобками обозначены явления, наблюдавшиеся между сроками (за 1-3 часа до срока); квадратными скобками обозначены град или гололедные отложения с указанием их диаметра в мм.
Облачность - указаны через наклонную черту общая и нижняя облачность в баллах и высота нижней границы облаков в метрах; квадратными скобками обозначены формы облаков: Ci - перистые, Cs - перисто-слоистые, Cc - перисто-кучевые, Ac - высококучевые, As - высокослоистые, Sc - слоисто-кучевые, Ns - слоисто-дождевые, Cu - кучевые, Cb - кучево-дождевые. Подробнее классификацию облаков см. в Атласе облаков (PDF).
T - Температура воздуха - температура, измеренная на высоте 2 м над землей.
Td - Температура точки росы - температура, при понижении до которой содержащийся в воздухе водяной пар достигнет насыщения.
f - Относительная влажность воздуха - влажноcть воздуха, измеренная на высоте 2 м над землей.
Te - Эффективная температура - температура, которую ощущает одетый по сезону человек в тени. Характеристика душности погоды. При расчете учитывается влияние влажности воздуха и скорости ветра на теплоощущения человека.
Tes - Эффективная температура на солнце - температура, которую ощущает человек, с поправкой на солнечный нагрев. Характеристика знойности погоды. Зависит от высоты солнца над горизонтом, облачности и скорости ветра. Ночью, в пасмурную погоду, а также при ветре 12 м/с и более поправка равна нулю.
P - Атмосферное давление - приведенное к уровню моря атмосферное давление.
Po - Атмосферное давление - измеренное на уровне метеостанции атмосферное давление.
Tmin - Минимальная температура - минимум температуры воздуха на высоте 2 м над землей.
Tmax - Максимальная температура - максимум температуры воздуха на высоте 2 м над землей.
R - Количество осадков - Количество выпавших осадков за период времени, мм. При наведении курсора мыши на число - период времени, за который выпало указанное количество осадков.
R24 - Количество осадков - Количество выпавших осадков за 24 часа, мм.
S - Снежный покров - Высота снежного покрова, см. При наведении курсора мыши на число - состояние снежного покрова и степень покрытия местности в баллах.